Bay City, TX

6:08 PM CDT on October 17, 2017 (GMT -0500)
Bay City

Weather History for KBYY - November, 2013

Change the Weather History Date:

Friday, November 15, 2013

  Actual Average (KLBX) Record (KLBX)
Temperature  
Mean Temperature 68 °F -  
Max Temperature 79 °F 69 °F 84 °F (2005)
Min Temperature 57 °F 53 °F 37 °F (2008)
Cooling Degree Days 3    
Growing Degree Days 18 (Base 50)    
Moisture  
Dew Point 63 °F    
Average Humidity 84    
Maximum Humidity 98    
Minimum Humidity 61    
Precipitation  
Precipitation 0.00 in - - ()
Sea Level Pressure  
Sea Level Pressure 29.98 in    
Wind  
Wind Speed 4 mph (ESE)    
Max Wind Speed 10 mph    
Max Gust Speed -    
Visibility 9 miles    
Events      
Averages and records for this station are not official NWS values.
T = Trace of Precipitation, MM = Missing Value Source: NWS Daily Summary

Daily Weather History Graph

Daily Weather History Graph

Search for Another Location

Airport or City:

Trip Planner

Search our weather history database for the weather conditions in past years. The results will help you decide how hot, cold, wet, or windy it might be!

Date:

Astronomy

Nov. 15, 2013 Rise Set
Actual Time 6:46 AM CST 5:29 PM CST
Civil Twilight 6:21 AM CST 5:54 PM CST
Nautical Twilight 5:53 AM CST 6:22 PM CST
Astronomical Twilight 5:25 AM CST 6:50 PM CST
Moon 4:20 PM CST (11/15) 4:52 AM CST (11/15)
Length of Visible Light 11h 32m
Length of Day
10h 42m
Waxing Gibbous, 96% of the Moon is Illuminated
Nov 15
Waxing Gibbous
Nov 17
Full
Nov 25
Last Quarter
Dec 2
New
Dec 9
First Quarter

Hourly Weather History & Observations

Time (CST) Temp. Dew Point Humidity Pressure Visibility Wind Dir Wind Speed Gust Speed Precip Events Conditions
12:15 AM 59.0 °F 57.4 °F 94% 30.04 in 10.0 mi ENE 3.5 mph - N/A   Mostly Cloudy
12:55 AM 58.3 °F 57.2 °F 96% 30.04 in 10.0 mi ENE 3.5 mph - N/A   Scattered Clouds
1:15 AM 58.1 °F 57.0 °F 96% 30.04 in 10.0 mi Calm Calm - N/A   Clear
1:35 AM 57.9 °F 56.8 °F 96% 30.03 in 7.0 mi ENE 3.5 mph - N/A   Clear
1:55 AM 57.4 °F 56.5 °F 97% 30.03 in 7.0 mi NE 4.6 mph - N/A   Clear
2:15 AM 57.9 °F 56.8 °F 96% 30.02 in 7.0 mi ENE 3.5 mph - N/A   Mostly Cloudy
2:35 AM 58.1 °F 57.2 °F 97% 30.02 in 7.0 mi NNE 3.5 mph - N/A   Mostly Cloudy
2:55 AM 59.2 °F 58.3 °F 97% 30.01 in 7.0 mi ENE 4.6 mph - N/A   Mostly Cloudy
3:15 AM 58.8 °F 57.9 °F 97% 30.01 in 7.0 mi NE 4.6 mph - N/A   Scattered Clouds
3:35 AM 58.6 °F 57.7 °F 97% 30.00 in 7.0 mi ENE 3.5 mph - N/A   Clear
3:55 AM 58.1 °F 57.2 °F 97% 30.00 in 4.0 mi NE 3.5 mph - N/A   Clear
4:15 AM 58.3 °F 57.6 °F 97% 30.00 in 5.0 mi NNE 3.5 mph - N/A   Scattered Clouds
4:35 AM 59.2 °F 58.5 °F 97% 30.01 in 7.0 mi NE 3.5 mph - N/A   Scattered Clouds
4:55 AM 59.2 °F 58.5 °F 97% 30.00 in 5.0 mi NNE 3.5 mph - N/A   Clear
5:15 AM 59.5 °F 58.8 °F 97% 30.01 in 5.0 mi Calm Calm - N/A   Scattered Clouds
5:35 AM 59.5 °F 58.8 °F 97% 30.00 in 5.0 mi Calm Calm - N/A   Scattered Clouds
5:55 AM 59.2 °F 58.5 °F 97% 30.00 in 5.0 mi NE 3.5 mph - N/A   Scattered Clouds
6:15 AM 59.2 °F 58.5 °F 97% 30.00 in 7.0 mi NE 4.6 mph - N/A   Clear
6:35 AM 59.2 °F 58.5 °F 97% 30.01 in 5.0 mi NE 3.5 mph - N/A   Mostly Cloudy
6:55 AM 59.4 °F 58.8 °F 98% 30.01 in 7.0 mi NE 3.5 mph - N/A   Mostly Cloudy
7:15 AM 59.5 °F 58.8 °F 97% 30.02 in 5.0 mi Calm Calm - N/A   Overcast
7:35 AM 59.7 °F 58.8 °F 97% 30.02 in 5.0 mi East 4.6 mph - N/A   Scattered Clouds
7:55 AM 60.4 °F 59.5 °F 97% 30.02 in 7.0 mi ENE 4.6 mph - N/A   Clear
8:15 AM 62.4 °F 61.0 °F 95% 30.02 in 10.0 mi ENE 3.5 mph - N/A   Clear
8:35 AM 64.4 °F 62.2 °F 93% 30.02 in 10.0 mi ENE 3.5 mph - N/A   Clear
8:55 AM 66.2 °F 63.3 °F 90% 30.03 in 10.0 mi Calm Calm - N/A   Clear
9:15 AM 68.7 °F 64.4 °F 86% 30.03 in 10.0 mi Calm Calm - N/A   Clear
9:35 AM 71.2 °F 65.5 °F 82% 30.03 in 10.0 mi Calm Calm - N/A   Clear
9:55 AM 73.8 °F 66.4 °F 78% 30.03 in 10.0 mi East 3.5 mph - N/A   Clear
10:15 AM 75.2 °F 66.4 °F 74% 30.03 in 10.0 mi Calm Calm - N/A   Clear
10:35 AM 75.9 °F 66.4 °F 72% 30.02 in 10.0 mi ESE 3.5 mph - N/A   Clear
10:55 AM 77.2 °F 66.4 °F 69% 30.02 in 10.0 mi Calm Calm - N/A   Clear
11:15 AM 77.9 °F 66.4 °F 68% 30.01 in 10.0 mi Calm Calm - N/A   Mostly Cloudy
11:35 AM 78.4 °F 65.3 °F 64% 29.99 in 10.0 mi South 4.6 mph - N/A   Mostly Cloudy
11:55 AM 79.5 °F 64.9 °F 61% 29.98 in 10.0 mi South 8.1 mph - N/A   Mostly Cloudy
12:15 PM 79.3 °F 65.1 °F 62% 29.98 in 10.0 mi Calm Calm - N/A   Scattered Clouds
12:35 PM 78.3 °F 64.9 °F 63% 29.97 in 10.0 mi Calm Calm - N/A   Mostly Cloudy
12:55 PM 79.3 °F 64.9 °F 61% 29.95 in 10.0 mi SSW 4.6 mph - N/A   Overcast
1:15 PM 79.2 °F 64.8 °F 61% 29.95 in 10.0 mi SW 3.5 mph - N/A   Mostly Cloudy
1:35 PM 79.5 °F 64.9 °F 61% 29.94 in 10.0 mi South 8.1 mph - N/A   Overcast
1:55 PM 78.8 °F 64.9 °F 62% 29.93 in 10.0 mi South 5.8 mph - N/A   Overcast
2:15 PM 78.8 °F 64.9 °F 62% 29.93 in 10.0 mi South 4.6 mph - N/A   Overcast
2:35 PM 78.3 °F 64.8 °F 63% 29.92 in 10.0 mi South 6.9 mph - N/A   Overcast
2:55 PM 78.6 °F 64.9 °F 63% 29.92 in 10.0 mi South 8.1 mph - N/A   Overcast
3:15 PM 78.4 °F 64.9 °F 63% 29.92 in 10.0 mi South 9.2 mph - N/A   Overcast
3:35 PM 79.3 °F 64.9 °F 61% 29.92 in 10.0 mi South 9.2 mph - N/A   Overcast
3:55 PM 77.9 °F 64.8 °F 64% 29.92 in 10.0 mi South 8.1 mph - N/A   Mostly Cloudy
4:15 PM 76.8 °F 64.8 °F 66% 29.91 in 10.0 mi South 8.1 mph - N/A   Overcast
4:35 PM 77.4 °F 64.9 °F 65% 29.92 in 10.0 mi SSE 10.4 mph - N/A   Mostly Cloudy
4:55 PM 76.5 °F 64.6 °F 67% 29.92 in 10.0 mi SSE 8.1 mph - N/A   Scattered Clouds
5:15 PM 74.5 °F 64.6 °F 71% 29.92 in 10.0 mi SSE 4.6 mph - N/A   Clear
5:35 PM 72.5 °F 64.6 °F 76% 29.91 in 10.0 mi SE 4.6 mph - N/A   Clear
5:55 PM 70.7 °F 64.2 °F 80% 29.91 in 10.0 mi ESE 4.6 mph - N/A   Clear
6:15 PM 69.1 °F 63.9 °F 83% 29.92 in 10.0 mi ESE 3.5 mph - N/A   Clear
6:35 PM 68.2 °F 63.7 °F 85% 29.92 in 10.0 mi ESE 4.6 mph - N/A   Clear
6:55 PM 67.5 °F 63.7 °F 88% 29.93 in 10.0 mi ESE 3.5 mph - N/A   Clear
7:15 PM 67.1 °F 64.0 °F 90% 29.93 in 10.0 mi ESE 3.5 mph - N/A   Clear
7:35 PM 66.7 °F 64.0 °F 91% 29.94 in 10.0 mi ESE 3.5 mph - N/A   Clear
7:55 PM 66.2 °F 63.9 °F 92% 29.94 in 10.0 mi SE 4.6 mph - N/A   Clear
8:15 PM 66.2 °F 64.2 °F 93% 29.94 in 10.0 mi ESE 4.6 mph - N/A   Clear
8:35 PM 66.7 °F 64.6 °F 93% 29.95 in 10.0 mi ESE 5.8 mph - N/A   Clear
8:55 PM 66.9 °F 64.8 °F 93% 29.96 in 10.0 mi ESE 3.5 mph - N/A   Clear
9:15 PM 66.4 °F 64.4 °F 93% 29.96 in 10.0 mi ESE 4.6 mph - N/A   Clear
9:35 PM 66.2 °F 64.4 °F 94% 29.97 in 10.0 mi ESE 4.6 mph - N/A   Clear
9:55 PM 66.2 °F 64.6 °F 94% 29.97 in 10.0 mi ESE 4.6 mph - N/A   Clear
10:15 PM 66.6 °F 64.8 °F 94% 29.97 in 10.0 mi ESE 6.9 mph - N/A   Clear
10:35 PM 67.3 °F 65.3 °F 93% 29.96 in 10.0 mi ESE 5.8 mph - N/A   Clear
10:55 PM 67.5 °F 65.1 °F 92% 29.96 in 10.0 mi ESE 5.8 mph - N/A   Clear
11:15 PM 67.1 °F 64.9 °F 93% 29.95 in 10.0 mi ESE 5.8 mph - N/A   Clear
11:35 PM 66.9 °F 64.8 °F 93% 29.95 in 10.0 mi ESE 4.6 mph - N/A   Clear
11:55 PM 66.6 °F 64.6 °F 93% 29.95 in 10.0 mi ESE 4.6 mph - N/A   Clear